Probability
26 42 58 58 58 61 61 61 58 55 48 45 42 55 52 48 42 35 42 35 39 32 26 19 16 26 26 16 10 10 16 19 16 16 10 10 13 10 6 6 0 0 3
29 52 58 58 58 58 58 58 52 55 52 45 45 42 39 45 42 52 42 45 39 35 32 23 19 13 13 16 16 16 13 10 6 3 0 0 3 10 6 0 0 0 3
39 48 58 58 58 58 58 58 52 55 52 45 45 42 35 32 29 32 39 45 42 35 29 32 23 19 19 16 16 13 16 19 19 10 0 0 0 3 6 3 3 3 0
39 45 58 58 58 58 58 58 55 55 55 52 45 45 35 29 26 26 29 32 32 39 39 29 32 29 19 13 13 19 13 13 16 10 0 0 0 0 6 3 3 0 0
35 39 55 58 58 58 58 58 55 55 48 52 52 45 39 39 29 23 26 32 29 32 32 32 29 26 32 23 13 13 10 13 13 6 0 0 0 0 6 10 3 3 0
32 35 45 55 55 52 48 52 52 45 45 45 42 39 35 29 32 29 32 29 32 29 23 26 35 32 29 26 19 16 16 13 6 0 0 0 0 0 3 10 6 3 0
23 35 42 45 48 48 48 48 52 48 45 42 42 42 35 26 26 26 29 26 26 23 26 23 26 35 35 26 19 19 19 13 3 0 0 0 0 0 6 3 10 3 0
26 29 35 42 42 45 45 45 45 48 48 45 42 39 35 32 32 29 32 29 26 23 23 23 26 29 29 26 16 19 19 6 3 0 0 0 0 6 13 6 10 3 3
23 29 29 32 35 35 39 39 32 35 35 42 35 39 35 32 32 32 32 32 29 23 19 16 16 19 23 19 13 13 6 3 0 0 0 0 0 3 10 16 13 10 6
13 13 16 16 13 13 13 16 13 19 26 26 26 19 10 16 23 19 19 29 32 29 29 23 16 16 10 19 10 3 0 0 0 0 0 0 0 3 6 16 13 6 10
3 6 6 6 6 6 10 10 10 10 10 10 10 6 6 6 6 6 10 10 19 23 23 23 16 16 10 3 3 3 0 0 0 0 0 0 0 3 6 13 19 10 10
3 3 3 3 3 3 6 6 6 6 6 6 6 6 6 6 6 3 3 6 6 6 10 13 10 13 3 0 0 0 0 0 0 0 0 0 0 3 3 10 16 19 10
3 3 3 3 3 0 0 3 6 6 6 6 6 6 3 6 0 3 0 0 3 3 3 3 3 3 0 0 0 0 0 0 0 0 0 0 3 3 6 10 19 16 16
3 3 3 3 3 0 3 3 6 6 3 3 3 3 3 3 0 0 0 0 0 0 0 0 0 0 0 0 0 0 0 0 0 0 0 0 0 3 6 10 16 19 13
3 3 3 6 3 0 3 3 3 3 3 3 3 3 3 0 0 0 0 0 0 0 0 0 0 0 0 0 0 0 0 0 0 0 0 0 0 0 10 10 13 13 10
0 0 6 6 3 0 3 3 3 0 3 3 3 3 3 0 0 0 0 0 0 0 0 0 0 0 0 0 0 0 0 0 0 0 0 0 0 0 3 6 6 13 13
0 0 0 6 3 3 0 0 0 0 3 3 3 3 0 0 0 0 0 0 0 0 0 0 0 0 0 0 0 0 0 0 0 0 0 0 0 0 0 6 6 16 16
0 0 0 0 0 0 0 0 0 0 0 0 0 0 0 0 0 0 0 0 0 0 0 0 0 0 0 0 0 0 0 0 0 0 0 0 0 0 0 0 3 10 16
0 0 0 0 0 0 0 0 0 0 0 0 0 0 0 0 0 0 0 0 0 0 0 0 0 0 0 0 0 0 0 0 0 0 0 0 0 0 0 0 0 0 3
0 0 0 0 0 0 0 0 0 0 0 0 0 0 0 0 0 0 0 0 0 0 0 0 0 0 0 0 0 0 0 0 0 0 0 0 0 0 0 0 0 0 0
0 0 0 0 0 0 0 0 0 0 0 0 0 0 0 0 0 0 0 0 0 0 0 0 0 0 0 0 0 0 0 0 0 0 0 0 0 0 0 0 0 0 0
0 0 0 0 0 0 0 0 0 0 0 0 0 0 0 0 0 0 0 0 0 0 0 0 0 0 0 0 0 0 0 0 0 0 0 0 0 0 0 0 0 0 0
0 0 0 0 0 0 0 0 0 0 0 0 0 0 0 0 0 0 0 0 0 0 0 0 0 0 0 0 0 0 0 0 0 0 0 0 0 0 0 0 0 0 0
0 0 0 0 0 0 0 0 0 0 0 0 0 0 0 0 0 0 0 0 0 0 0 0 0 0 0 0 0 0 0 0 0 0 0 0 0 0 0 0 0 0 0
0 0 0 0 0 0 0 0 0 0 0 0 0 0 0 0 0 0 0 0 0 0 0 0 0 0 0 0 0 0 0 0 0 0 0 0 0 0 0 0 0 0 0
0 0 0 0 0 0 0 0 0 0 0 0 0 0 0 0 0 0 0 0 0 0 0 0 0 0 0 0 0 0 0 0 0 0 0 0 0 0 0 0 0 0 0
Height
5873 5873 5874 5875 5876 5877 5878 5878 5879 5880 5880 5881 5881 5882 5882 5882 5882 5882 5882 5882 5882 5882 5882 5881 5881 5881 5881 5881 5881 5880 5880 5880 5879 5879 5879 5878 5878 5878 5877 5877 5876 5876 5875
5870 5871 5872 5873 5874 5875 5876 5876 5877 5878 5878 5879 5879 5880 5880 5880 5880 5880 5880 5880 5880 5880 5880 5880 5880 5879 5879 5879 5879 5879 5878 5878 5878 5877 5877 5877 5876 5876 5875 5875 5875 5874 5873
5867 5868 5869 5870 5871 5872 5873 5874 5875 5876 5876 5877 5877 5877 5878 5878 5878 5878 5878 5878 5878 5878 5878 5878 5878 5877 5877 5877 5877 5876 5876 5876 5876 5875 5875 5875 5874 5874 5873 5873 5873 5872 5871
5863 5865 5866 5867 5868 5869 5870 5871 5872 5873 5874 5874 5875 5875 5875 5876 5876 5876 5876 5876 5876 5876 5876 5876 5875 5875 5875 5875 5874 5874 5874 5874 5873 5873 5873 5872 5872 5871 5871 5871 5870 5870 5869
5860 5861 5862 5864 5865 5866 5867 5868 5869 5870 5871 5871 5872 5872 5872 5873 5873 5873 5873 5873 5873 5873 5873 5873 5873 5872 5872 5872 5872 5871 5871 5871 5871 5870 5870 5870 5869 5869 5868 5868 5867 5867 5866
5855 5857 5858 5860 5861 5862 5863 5864 5866 5866 5867 5868 5868 5869 5869 5869 5869 5870 5870 5870 5870 5870 5870 5870 5869 5869 5869 5869 5869 5868 5868 5868 5868 5867 5867 5866 5866 5866 5865 5865 5864 5864 5863
5851 5852 5854 5855 5856 5858 5859 5860 5861 5862 5863 5864 5864 5865 5865 5865 5866 5866 5866 5866 5866 5866 5866 5866 5866 5865 5865 5865 5865 5865 5865 5864 5864 5864 5863 5863 5863 5862 5862 5861 5861 5861 5860
5846 5847 5848 5850 5851 5853 5854 5855 5856 5857 5858 5859 5859 5860 5860 5860 5861 5861 5861 5861 5861 5861 5861 5861 5861 5861 5861 5861 5861 5861 5860 5860 5860 5860 5859 5859 5859 5858 5858 5857 5857 5857 5856
5840 5842 5843 5844 5846 5847 5848 5849 5851 5852 5853 5854 5855 5855 5855 5855 5856 5856 5856 5856 5856 5856 5856 5856 5856 5856 5856 5856 5856 5856 5856 5856 5856 5855 5855 5855 5854 5854 5853 5853 5853 5852 5852
5834 5836 5838 5839 5840 5842 5843 5844 5845 5847 5848 5849 5849 5850 5850 5850 5850 5851 5851 5851 5851 5851 5851 5851 5851 5851 5851 5851 5851 5851 5851 5851 5851 5850 5850 5850 5849 5849 5849 5848 5848 5848 5847
5828 5829 5831 5833 5835 5836 5837 5838 5840 5841 5842 5843 5843 5844 5844 5845 5845 5845 5845 5845 5845 5845 5845 5845 5845 5845 5845 5845 5845 5845 5845 5845 5845 5845 5844 5844 5844 5844 5843 5843 5843 5842 5842
5821 5823 5825 5827 5828 5830 5832 5833 5834 5835 5836 5837 5837 5838 5839 5839 5839 5839 5839 5839 5839 5839 5839 5839 5839 5839 5839 5839 5839 5839 5838 5838 5838 5838 5838 5838 5838 5838 5837 5837 5837 5836 5836
5815 5817 5819 5820 5822 5824 5826 5827 5828 5829 5830 5831 5831 5832 5833 5833 5833 5833 5833 5833 5833 5833 5833 5833 5832 5832 5832 5832 5832 5832 5831 5831 5831 5831 5831 5831 5831 5830 5831 5830 5830 5830 5829
5809 5811 5813 5814 5816 5818 5819 5821 5822 5823 5824 5825 5825 5826 5826 5827 5827 5827 5827 5827 5827 5826 5826 5826 5826 5825 5825 5824 5824 5824 5824 5823 5823 5823 5823 5823 5823 5823 5823 5823 5823 5822 5822
5803 5805 5806 5808 5810 5812 5813 5814 5815 5816 5817 5818 5819 5820 5820 5820 5820 5820 5820 5819 5819 5819 5819 5818 5818 5817 5817 5817 5816 5816 5816 5816 5815 5815 5815 5814 5814 5814 5815 5815 5814 5814 5814
5797 5798 5800 5802 5804 5805 5807 5808 5809 5810 5811 5812 5812 5813 5813 5813 5813 5813 5812 5812 5811 5811 5810 5810 5810 5809 5809 5808 5808 5807 5807 5807 5806 5806 5806 5806 5805 5805 5806 5806 5806 5806 5806
5790 5792 5793 5796 5797 5799 5801 5802 5803 5803 5804 5805 5805 5806 5806 5806 5806 5805 5804 5804 5803 5802 5802 5802 5801 5800 5800 5799 5799 5798 5798 5798 5797 5797 5797 5797 5796 5796 5796 5796 5796 5797 5797
5784 5786 5788 5790 5791 5793 5794 5795 5796 5796 5796 5797 5797 5798 5798 5798 5798 5797 5796 5795 5795 5794 5793 5793 5792 5791 5790 5790 5789 5789 5788 5788 5788 5788 5788 5787 5787 5787 5787 5787 5787 5787 5787
5777 5779 5781 5783 5785 5786 5787 5788 5789 5789 5789 5789 5790 5790 5790 5790 5790 5789 5788 5787 5786 5785 5784 5784 5783 5782 5781 5780 5779 5779 5779 5778 5778 5778 5778 5777 5777 5777 5777 5777 5776 5777 5776
5771 5773 5775 5776 5778 5779 5779 5780 5781 5781 5782 5782 5782 5782 5782 5782 5781 5780 5779 5778 5777 5776 5775 5774 5773 5772 5771 5770 5770 5769 5769 5768 5768 5767 5767 5767 5767 5766 5766 5766 5766 5766 5766
5764 5766 5768 5769 5771 5772 5772 5773 5774 5774 5774 5774 5774 5773 5774 5773 5772 5771 5770 5769 5768 5767 5766 5765 5764 5763 5762 5761 5760 5760 5759 5758 5758 5757 5757 5756 5756 5756 5756 5755 5755 5756 5756
5757 5759 5761 5762 5763 5765 5765 5766 5766 5766 5765 5765 5765 5765 5765 5764 5763 5762 5761 5760 5759 5758 5756 5755 5754 5753 5752 5751 5750 5749 5750 5749 5747 5746 5746 5745 5745 5745 5745 5745 5745 5745 5745
5751 5752 5754 5755 5756 5757 5757 5757 5757 5757 5757 5757 5756 5756 5756 5756 5755 5754 5753 5751 5750 5748 5747 5745 5744 5743 5742 5741 5739 5739 5738 5738 5737 5736 5735 5735 5734 5734 5734 5734 5734 5734 5734
5744 5745 5746 5748 5748 5749 5749 5750 5749 5749 5749 5749 5748 5748 5747 5747 5746 5745 5744 5742 5740 5739 5737 5736 5734 5733 5732 5731 5729 5728 5727 5726 5726 5726 5725 5724 5723 5723 5723 5722 5722 5722 5722
5737 5738 5739 5740 5741 5741 5741 5742 5741 5741 5741 5740 5740 5739 5739 5738 5737 5736 5735 5733 5731 5730 5728 5726 5725 5723 5722 5721 5719 5718 5717 5716 5714 5714 5715 5714 5713 5712 5711 5711 5710 5710 5710
5729 5730 5731 5732 5732 5732 5733 5733 5733 5733 5733 5732 5731 5731 5730 5729 5728 5727 5725 5724 5722 5720 5718 5717 5715 5713 5712 5710 5709 5707 5706 5705 5704 5703 5703 5703 5702 5701 5700 5699 5698 5698 5697
Wind_Speed
13 13 13 13 13 12 12 11 11 11 11 11 10 10 10 10 10 10 10 10 10 10 10 10 10 10 10 10 10 10 9 9 10 10 10 10 9 9 9 9 9 9 9
15 15 15 14 14 14 13 13 13 13 12 12 12 12 12 11 11 12 11 11 12 11 11 11 11 11 11 12 12 11 11 10 10 11 11 11 11 11 11 11 11 11 10
17 16 16 16 15 15 15 14 14 14 14 14 14 14 14 14 13 13 13 13 13 13 13 13 13 13 13 12 12 13 13 12 12 12 12 12 13 13 13 12 12 12 12
19 18 18 18 17 17 16 16 16 16 15 15 15 15 15 15 15 15 15 15 15 15 15 15 15 15 15 14 14 14 14 14 14 14 14 14 14 14 14 14 13 13 13
20 20 20 19 19 18 17 17 18 18 17 17 17 17 17 17 17 17 18 18 17 17 18 17 17 17 17 16 16 16 16 16 16 16 16 16 16 16 15 15 15 15 15
22 22 21 21 21 21 20 19 20 20 20 20 20 20 20 20 20 20 20 20 20 20 20 20 19 19 19 19 18 18 18 18 17 17 17 18 17 17 17 17 17 17 17
24 24 23 23 23 23 23 22 22 22 22 22 23 23 23 23 23 23 23 23 22 22 22 22 22 21 21 21 21 20 20 20 20 19 19 19 19 19 19 19 19 18 18
25 25 25 26 25 25 25 24 24 24 24 24 24 24 24 24 24 24 25 24 24 24 24 24 23 23 23 23 22 22 22 22 22 22 21 21 21 21 21 21 21 21 21
27 27 27 27 27 27 27 26 25 25 25 25 26 26 26 26 26 26 26 26 26 26 25 25 25 25 25 25 24 24 24 23 23 23 23 23 23 23 23 23 24 24 23
28 29 29 29 29 29 28 27 26 26 26 27 27 27 27 27 26 26 26 26 26 27 27 27 27 27 27 27 26 26 26 26 26 26 25 25 25 25 25 25 25 25 25
29 30 30 30 30 30 29 27 27 27 27 28 28 28 28 28 27 27 27 27 27 28 28 28 29 29 29 29 29 29 29 29 29 28 28 27 28 28 27 27 27 27 27
30 30 30 30 31 31 30 29 28 28 28 28 28 28 28 28 28 28 28 28 28 29 29 29 30 30 31 31 31 31 31 31 31 31 31 31 30 30 30 30 30 29 29
30 30 30 30 31 31 31 30 29 28 28 28 28 28 28 28 28 29 29 29 30 30 30 31 31 32 32 33 33 33 33 34 33 34 34 34 34 33 33 33 32 32 32
30 30 30 30 30 31 30 29 28 28 28 28 28 29 29 29 29 30 30 31 32 32 33 33 33 34 34 34 34 35 35 35 35 35 36 36 36 36 35 35 35 35 35
30 30 29 30 29 29 30 29 29 28 28 29 30 30 30 30 31 32 33 34 34 35 35 35 36 36 36 36 35 36 36 36 36 36 36 37 37 38 38 37 37 37 37
30 29 29 29 29 29 29 29 29 29 29 30 31 30 31 32 32 33 34 35 35 35 36 36 37 37 37 37 37 37 37 37 37 37 37 37 38 38 39 39 39 40 39
30 30 30 30 29 30 30 30 30 30 29 30 31 31 32 32 33 33 34 35 35 36 36 37 37 37 38 38 38 39 38 38 38 38 38 39 39 39 40 40 41 41 42
31 30 30 30 30 31 31 31 31 31 31 31 31 31 32 33 33 34 35 35 36 36 37 37 38 38 39 39 39 39 39 40 40 40 40 40 40 41 42 42 42 43 43
31 31 31 31 31 32 32 32 33 34 34 33 32 33 33 34 35 35 35 36 37 37 38 38 38 39 39 40 40 41 41 41 41 42 41 42 42 42 43 43 43 43 44
31 31 31 32 32 33 33 33 33 34 35 35 34 34 35 35 36 35 35 36 37 38 38 38 39 39 40 40 40 40 41 42 42 42 43 43 43 43 43 43 43 43 44
31 32 32 33 33 34 33 34 35 35 36 37 37 36 35 36 36 36 36 36 36 37 38 38 39 39 38 39 40 40 41 42 43 43 43 44 43 42 43 44 44 44 44
31 32 33 34 34 34 35 35 36 37 37 37 37 37 36 36 36 36 36 37 37 37 38 38 38 38 39 39 40 40 41 41 42 43 44 44 44 43 42 43 44 44 44
32 32 33 34 34 34 35 36 36 37 37 37 37 37 37 37 37 36 36 38 37 37 38 38 38 39 40 41 41 41 41 40 41 42 43 43 43 43 43 43 44 45 44
31 32 32 33 35 35 35 37 37 37 37 36 37 37 37 37 37 36 36 36 36 37 38 38 38 39 39 40 40 41 41 40 41 41 42 43 43 44 44 44 44 45 47
32 33 33 33 34 35 36 37 37 37 37 37 37 37 37 37 37 37 37 36 36 37 37 37 39 39 39 40 40 40 41 41 41 42 42 43 44 45 46 46 45 45 45
32 33 33 34 34 35 36 36 37 38 37 37 37 37 37 37 38 38 38 38 38 37 37 38 39 39 40 40 40 41 41 41 42 43 43 43 44 45 45 45 45 46 46
Wind_Direction
239 239 239 239 240 242 243 246 248 251 255 258 260 261 263 265 267 267 266 266 267 268 269 268 267 267 266 267 270 273 276 276 274 272 273 274 276 278 282 283 283 283 285
240 240 240 239 240 242 244 246 248 251 255 258 260 261 261 263 265 266 266 266 267 267 268 269 269 269 269 268 269 270 273 274 274 274 273 273 274 277 280 281 281 282 283
243 243 242 242 243 244 246 247 249 252 255 258 260 260 260 262 264 265 265 266 266 266 267 268 268 269 270 270 269 270 271 273 274 274 275 274 275 276 278 279 279 279 281
244 244 243 244 245 246 247 249 251 254 256 258 259 261 261 262 263 265 266 267 267 267 267 268 269 269 270 271 271 271 271 273 273 274 275 276 276 276 277 277 276 276 278
245 246 246 245 246 247 248 251 254 256 257 259 259 260 261 262 264 265 266 267 267 268 268 268 268 269 269 269 269 270 271 272 271 271 273 275 276 276 277 277 277 276 276
247 247 248 247 247 249 251 253 255 256 257 259 260 261 262 262 263 265 266 267 268 268 268 268 269 269 269 268 269 269 269 270 271 272 272 273 276 277 276 276 277 278 278
247 247 247 248 249 250 253 254 256 258 259 260 262 263 263 264 264 264 266 267 268 269 269 268 268 269 269 269 269 269 269 269 270 272 273 273 274 275 275 275 276 277 278
248 248 248 249 251 252 253 255 258 260 261 262 263 263 264 264 265 266 266 267 268 268 268 268 268 268 268 268 269 269 269 270 270 271 272 273 274 274 274 274 275 276 277
248 250 251 250 251 253 253 257 258 260 262 263 263 264 264 265 266 266 266 266 266 267 267 267 267 267 267 268 268 269 270 270 271 271 272 272 273 273 274 274 274 275 276
249 250 251 250 251 252 255 258 258 260 262 263 264 264 265 265 266 267 267 266 266 267 267 267 267 267 267 268 268 268 269 270 271 271 271 272 272 273 273 274 275 275 275
249 249 250 250 251 253 255 257 258 260 262 263 264 265 265 265 266 267 267 267 268 268 268 267 267 268 268 268 268 268 269 269 270 270 270 271 271 272 272 273 274 274 274
247 248 250 250 251 253 255 256 257 259 261 263 264 265 265 266 266 266 267 267 268 269 268 268 268 268 269 269 269 269 269 269 270 270 269 270 270 271 271 271 272 273 273
248 249 250 250 251 253 255 256 257 258 260 262 263 263 265 266 267 268 268 269 269 270 270 270 270 270 270 270 270 270 269 269 270 270 270 269 270 270 270 270 270 271 272
247 249 251 250 251 252 254 254 255 256 259 261 262 264 265 267 268 268 270 270 270 271 271 271 271 271 272 271 271 270 270 270 270 270 270 269 269 269 269 269 269 269 271
247 247 248 248 249 251 252 253 253 256 259 261 264 265 267 268 269 271 271 271 271 270 270 271 272 272 272 271 271 271 271 271 271 271 270 270 269 268 268 268 269 269 270
247 246 246 247 248 249 250 253 255 258 261 262 264 266 268 270 271 272 272 272 272 271 270 271 271 271 271 271 271 272 272 272 271 271 270 270 270 269 268 268 268 268 269
246 246 246 247 247 248 251 254 256 260 263 264 265 267 269 270 271 272 273 273 272 272 271 271 272 272 272 272 271 271 272 271 270 270 270 270 269 269 269 268 268 268 269
245 246 246 246 248 249 253 256 258 260 262 265 265 267 269 270 272 273 273 274 274 273 272 273 273 273 273 272 271 271 272 272 270 269 270 270 270 269 268 269 268 268 268
243 246 246 247 248 250 253 257 259 261 262 265 266 267 270 272 273 274 274 275 276 275 274 274 274 274 273 273 272 272 271 271 270 269 269 270 270 270 269 268 268 268 269
243 245 247 248 249 252 256 258 260 262 263 265 266 270 271 272 274 274 274 275 275 275 275 275 275 274 273 273 273 272 271 271 270 270 270 270 270 270 270 269 269 268 269
244 246 248 250 251 253 257 260 261 265 266 267 268 269 271 272 274 274 275 274 275 275 275 275 275 275 274 274 273 273 272 272 271 270 270 270 270 271 270 269 270 269 269
246 249 250 251 254 256 258 261 263 264 266 268 270 270 270 273 275 275 275 275 276 277 276 275 275 274 275 275 274 273 273 272 271 269 269 269 268 270 271 270 269 269 269
247 250 253 254 257 258 260 262 265 266 267 269 270 272 273 274 275 275 275 276 277 278 278 277 276 275 275 275 274 274 273 272 271 270 268 268 269 269 271 271 270 269 269
249 251 254 256 258 260 262 264 267 267 268 270 271 272 273 274 274 275 277 279 279 278 279 278 277 276 276 275 275 275 275 274 271 270 269 269 269 269 271 272 271 269 268
252 254 255 259 260 261 263 264 267 268 268 270 271 271 272 274 275 276 279 281 281 280 280 279 279 278 277 276 275 275 275 275 274 272 271 270 270 271 271 271 270 270 270
254 255 258 260 261 261 262 264 267 267 267 269 271 272 272 275 276 278 279 280 282 282 281 281 280 279 278 277 276 275 275 276 276 274 272 271 271 272 271 271 271 270 269